Location: *
(45.9500°N, 9.0833°E)
Time: 20:57:38
(UTC+00:00)

Tiros 1 despin weight - Pass Details

Date: 29 June 2021
Orbit: 593 x 642 km, 48.2° (Epoch: 05 August)

Event Time Altitude Azimuth Distance (km) Brightness Sun altitude
Rises 06:25:27 0° 288° (WNW) 2,833 ? 26.4°
Reaches altitude 10° 06:27:46 10° 286° (WNW) 1,926 ? 26.8°
Maximum altitude 06:32:07 65° 205° (SSW) 655 ? 27.5°
Drops below altitude 10° 06:36:28 10° 124° (SE) 1,920 ? 28.3°
Sets 06:38:46 0° 121° (ESE) 2,823 ? 28.7°
